Visibility
15.0 15.0 13.5 15.0 15.0 15.0 15.0 15.0 15.0 15.0 15.0 15.0 15.0 15.0 11.3 5.4 1.9 2.8 1.3 4.1 2.5 1.1
15.0 15.0 10.2 14.1 15.0 15.0 15.0 15.0 15.0 15.0 15.0 15.0 8.2 6.7 2.8 3.3 0.7 0.8 0.6 0.8 1.0 1.3
15.0 11.8 14.9 11.5 3.6 11.8 4.3 15.0 14.1 14.5 6.7 0.6 0.3 2.1 1.6 0.8 0.7 1.0 0.8 0.8 1.4 1.7
15.0 15.0 10.6 4.1 5.7 5.8 6.3 5.8 1.5 2.0 0.6 1.5 0.4 0.4 0.6 0.8 0.8 0.7 1.2 1.8 1.7 1.9
12.9 14.8 0.7 0.1 0.1 3.1 0.1 0.2 0.1 0.1 0.2 0.5 0.5 0.5 0.8 0.8 1.0 1.7 1.6 1.5 3.9 15.0
0.2 0.2 0.1 0.1 0.7 6.0 3.8 0.3 0.1 0.5 0.5 0.4 0.6 0.8 0.8 1.2 3.0 2.7 2.7 10.2 15.0 15.0
0.2 0.2 0.2 0.2 1.6 1.4 0.1 0.1 0.4 0.4 0.6 0.8 0.8 0.9 2.5 2.7 2.0 5.5 12.5 15.0 15.0 15.0
0.3 0.7 2.5 0.6 0.2 0.1 0.3 0.4 0.5 0.7 0.8 1.0 3.7 4.8 2.7 4.8 6.0 14.3 15.0 15.0 15.0 15.0
3.4 1.5 0.3 0.1 0.2 0.5 0.4 0.5 0.9 0.9 1.6 5.0 2.0 3.1 5.4 15.0 15.0 15.0 15.0 15.0 15.0 15.0
0.3 0.1 0.1 0.4 0.6 0.5 0.6 1.7 1.7 2.0 1.9 3.1 14.1 15.0 15.0 15.0 15.0 15.0 15.0 15.0 15.0 15.0
0.1 0.2 1.1 0.9 0.6 1.0 1.5 8.0 15.0 15.0 15.0 15.0 15.0 15.0 15.0 15.0 15.0 15.0 15.0 15.0 15.0 15.0
0.4 1.4 1.4 1.0 0.6 1.1 13.5 15.0 15.0 15.0 15.0 15.0 15.0 15.0 15.0 15.0 15.0 15.0 15.0 15.0 15.0 15.0
1.0 1.5 1.1 2.0 14.6 15.0 15.0 15.0 15.0 15.0 15.0 15.0 15.0 15.0 15.0 15.0 15.0 15.0 15.0 15.0 15.0 15.0
1.7 7.8 15.0 15.0 15.0 15.0 15.0 15.0 15.0 15.0 15.0 15.0 15.0 15.0 15.0 15.0 15.0 15.0 15.0 15.0 15.0 15.0